User: anonymous   Login
Location: Unspecified
(0.0000°N, 0.0000°E)
Time: 12:34:25
(UTC+01:00)
Language:

Hubble Space Telescope - Orbit

View from above orbital plane
View from above orbital plane
View from above satellite
View from above satellite

Ground track
Ground track

The orbit data is extracted from the following two-line orbital elements,

1 20580U 90037B   18017.46743441  .00000463  00000-0  17433-4 0  9999
2 20580  28.4708  31.3930 0002506 323.5843 190.4757 15.08964007322680
Epoch (UTC): 17 January 2018 11:13:06
Eccentricity: 0.0002506
inclination: 28.4708°
perigee height: 537 km
apogee height: 541 km
right ascension of ascending node: 31.3930°
argument of perigee: 323.5843°
revolutions per day: 15.08964007
mean anomaly at epoch: 190.4757°
orbit number at epoch: 32268

The dashed part of the orbit path shows where the satellite is in the earth's shadow,  

DLR